TimeCDT,TemperatureF,Dew PointF,Humidity,Sea Level PressureIn,VisibilityMPH,Wind Direction,Wind SpeedMPH,Gust SpeedMPH,PrecipitationIn,Events,Conditions,WindDirDegrees,DateUTC
12:15 AM,59.0,59.0,100,29.81,10.0,East,5.8,-,N/A,,Scattered Clouds,100,2013-09-09 05:15:00
12:35 AM,59.0,59.0,100,29.82,10.0,Calm,Calm,-,N/A,,Scattered Clouds,0,2013-09-09 05:35:00
12:55 AM,59.0,59.0,100,29.82,10.0,Calm,Calm,-,N/A,,Overcast,0,2013-09-09 05:55:00
1:15 AM,60.8,60.8,100,29.81,10.0,Calm,Calm,-,N/A,,Overcast,0,2013-09-09 06:15:00
1:35 AM,60.8,60.8,100,29.81,10.0,Calm,Calm,-,N/A,,Overcast,0,2013-09-09 06:35:00
1:55 AM,60.8,60.8,100,29.81,10.0,Calm,Calm,-,N/A,,Overcast,0,2013-09-09 06:55:00
2:15 AM,62.6,62.6,100,29.80,10.0,Calm,Calm,-,N/A,,Overcast,0,2013-09-09 07:15:00
2:35 AM,62.6,62.6,100,29.79,10.0,SSE,5.8,-,N/A,,Overcast,160,2013-09-09 07:35:00
2:55 AM,62.6,62.6,100,29.78,10.0,SSE,4.6,-,N/A,,Overcast,150,2013-09-09 07:55:00
3:15 AM,62.6,62.6,100,29.75,10.0,ESE,5.8,-,N/A,,Mostly Cloudy,120,2013-09-09 08:15:00
3:35 AM,62.6,62.6,100,29.74,7.0,SE,5.8,-,N/A,,Mostly Cloudy,130,2013-09-09 08:35:00
3:55 AM,62.6,62.6,100,29.74,5.0,SE,9.2,-,N/A,,Overcast,140,2013-09-09 08:55:00
4:15 AM,62.6,62.6,100,29.72,2.0,SE,8.1,-,N/A,,Overcast,130,2013-09-09 09:15:00
4:35 AM,62.6,62.6,100,29.74,1.0,SE,8.1,-,N/A,,Overcast,140,2013-09-09 09:35:00
4:55 AM,62.6,62.6,100,29.75,1.5,SE,9.2,-,N/A,,Overcast,140,2013-09-09 09:55:00
5:15 AM,62.6,62.6,100,29.76,3.0,SSE,8.1,-,N/A,Rain,Light Rain,160,2013-09-09 10:15:00
5:35 AM,62.6,62.6,100,29.76,2.5,South,4.6,-,N/A,Rain,Light Rain,170,2013-09-09 10:35:00
5:55 AM,62.6,62.6,100,29.74,2.5,ESE,4.6,-,N/A,Rain,Light Rain,110,2013-09-09 10:55:00
6:15 AM,62.6,62.6,100,29.73,2.5,East,5.8,-,N/A,Rain,Light Rain,90,2013-09-09 11:15:00
6:35 AM,62.6,62.6,100,29.71,2.5,NE,6.9,-,N/A,Rain,Light Rain,40,2013-09-09 11:35:00
6:55 AM,62.6,62.6,100,29.68,2.5,NE,8.1,-,N/A,Rain,Light Rain,50,2013-09-09 11:55:00
7:15 AM,62.6,62.6,100,29.66,3.0,NE,11.5,-,N/A,Rain,Light Rain,40,2013-09-09 12:15:00
7:35 AM,62.6,62.6,100,29.65,2.0,NE,11.5,-,N/A,Rain,Light Rain,40,2013-09-09 12:35:00
7:55 AM,62.6,62.6,100,29.66,4.0,NE,10.4,-,N/A,Rain,Light Rain,40,2013-09-09 12:55:00
8:15 AM,62.6,62.6,100,29.68,5.0,NE,8.1,-,N/A,,Overcast,50,2013-09-09 13:15:00
8:35 AM,62.6,62.6,100,29.67,5.0,ENE,9.2,-,N/A,,Overcast,60,2013-09-09 13:35:00
8:55 AM,62.6,62.6,100,29.69,6.0,ENE,5.8,-,N/A,,Overcast,60,2013-09-09 13:55:00
9:15 AM,62.6,62.6,100,29.68,8.0,NE,6.9,-,N/A,,Overcast,40,2013-09-09 14:15:00
9:35 AM,62.6,62.6,100,29.67,7.0,NNE,8.1,-,N/A,,Overcast,30,2013-09-09 14:35:00
9:55 AM,62.6,62.6,100,29.68,8.0,NE,6.9,-,N/A,,Overcast,40,2013-09-09 14:55:00
10:15 AM,64.4,64.4,100,29.69,9.0,NNE,8.1,-,N/A,,Overcast,20,2013-09-09 15:15:00
10:35 AM,64.4,64.4,100,29.69,10.0,NE,6.9,-,N/A,,Unknown,50,2013-09-09 15:35:00
10:55 AM,64.4,64.4,100,29.69,10.0,NE,8.1,-,N/A,,Unknown,40,2013-09-09 15:55:00
11:15 AM,64.4,64.4,100,29.69,10.0,NNE,9.2,-,N/A,,Overcast,30,2013-09-09 16:15:00
11:35 AM,64.4,64.4,100,29.69,9.0,North,8.1,-,N/A,,Overcast,10,2013-09-09 16:35:00
11:55 AM,64.4,64.4,100,29.69,9.0,North,9.2,-,N/A,,Overcast,10,2013-09-09 16:55:00
12:15 PM,64.4,64.4,100,29.68,10.0,North,10.4,-,N/A,,Overcast,10,2013-09-09 17:15:00
12:35 PM,66.2,64.4,94,29.68,10.0,NNE,10.4,-,N/A,,Overcast,20,2013-09-09 17:35:00
12:55 PM,66.2,64.4,94,29.68,10.0,NNE,11.5,-,N/A,,Overcast,30,2013-09-09 17:55:00
1:15 PM,66.2,64.4,94,29.68,10.0,NNE,9.2,-,N/A,,Overcast,20,2013-09-09 18:15:00
1:35 PM,68.0,64.4,88,29.68,10.0,NNE,10.4,-,N/A,,Overcast,20,2013-09-09 18:35:00
1:55 PM,68.0,64.4,88,29.69,10.0,North,11.5,-,N/A,,Mostly Cloudy,10,2013-09-09 18:55:00
2:15 PM,66.2,64.4,94,29.69,10.0,NNW,13.8,-,N/A,,Overcast,340,2013-09-09 19:15:00
2:35 PM,66.2,64.4,94,29.69,10.0,North,12.7,-,N/A,,Overcast,350,2013-09-09 19:35:00
2:55 PM,66.2,64.4,94,29.69,10.0,North,12.7,-,N/A,,Overcast,350,2013-09-09 19:55:00
3:15 PM,64.4,64.4,100,29.68,10.0,North,10.4,-,N/A,,Overcast,360,2013-09-09 20:15:00
3:35 PM,66.2,64.4,94,29.68,10.0,NNE,9.2,-,N/A,,Overcast,20,2013-09-09 20:35:00
3:55 PM,66.2,64.4,94,29.68,10.0,North,9.2,-,N/A,,Overcast,10,2013-09-09 20:55:00
4:15 PM,66.2,64.4,94,29.69,10.0,North,10.4,-,N/A,,Overcast,350,2013-09-09 21:15:00
4:35 PM,66.2,64.4,94,29.70,10.0,NNW,10.4,-,N/A,,Overcast,340,2013-09-09 21:35:00
4:55 PM,66.2,62.6,88,29.70,10.0,NNW,9.2,-,N/A,,Overcast,340,2013-09-09 21:55:00
5:15 PM,66.2,64.4,94,29.71,10.0,NNW,11.5,-,N/A,,Overcast,330,2013-09-09 22:15:00
5:35 PM,66.2,64.4,94,29.71,10.0,NW,10.4,-,N/A,,Overcast,320,2013-09-09 22:35:00
5:55 PM,64.4,64.4,100,29.72,10.0,NW,10.4,-,N/A,,Overcast,310,2013-09-09 22:55:00
6:15 PM,64.4,62.6,94,29.72,10.0,NNW,8.1,-,N/A,,Overcast,330,2013-09-09 23:15:00
6:35 PM,64.4,62.6,94,29.73,10.0,NW,12.7,-,N/A,,Overcast,310,2013-09-09 23:35:00
6:55 PM,64.4,64.4,100,29.73,10.0,NNW,9.2,-,N/A,,Overcast,330,2013-09-09 23:55:00
7:15 PM,64.4,62.6,94,29.73,10.0,NNW,8.1,-,N/A,,Overcast,340,2013-09-10 00:15:00
7:35 PM,64.4,62.6,94,29.74,9.0,NNW,10.4,-,N/A,,Overcast,340,2013-09-10 00:35:00
7:55 PM,64.4,62.6,94,29.74,10.0,NNW,5.8,-,N/A,,Overcast,330,2013-09-10 00:55:00
8:15 PM,64.4,62.6,94,29.75,10.0,NNW,5.8,-,N/A,,Overcast,330,2013-09-10 01:15:00
8:35 PM,64.4,62.6,94,29.75,10.0,NW,4.6,-,N/A,,Overcast,320,2013-09-10 01:35:00
8:55 PM,64.4,62.6,94,29.76,10.0,NW,6.9,-,N/A,,Overcast,310,2013-09-10 01:55:00
9:15 PM,64.4,62.6,94,29.76,10.0,NW,5.8,-,N/A,,Overcast,310,2013-09-10 02:15:00
9:35 PM,64.4,62.6,94,29.77,10.0,WNW,5.8,-,N/A,,Overcast,290,2013-09-10 02:35:00
9:55 PM,64.4,62.6,94,29.77,10.0,NW,4.6,-,N/A,,Overcast,310,2013-09-10 02:55:00
10:15 PM,64.4,62.6,94,29.77,10.0,WNW,4.6,-,N/A,,Overcast,300,2013-09-10 03:15:00
10:35 PM,64.4,62.6,94,29.77,10.0,West,4.6,-,N/A,,Overcast,260,2013-09-10 03:35:00
10:55 PM,64.4,64.4,100,29.78,10.0,West,6.9,-,N/A,,Overcast,270,2013-09-10 03:55:00
11:15 PM,64.4,62.6,94,29.78,10.0,West,4.6,-,N/A,,Overcast,280,2013-09-10 04:15:00
11:35 PM,62.6,62.6,100,29.77,10.0,Calm,Calm,-,N/A,,Overcast,0,2013-09-10 04:35:00
11:55 PM,62.6,62.6,100,29.77,10.0,Calm,Calm,-,N/A,,Overcast,0,2013-09-10 04:55:00